1322870432653,1.10981
1322870492653,1.11003
1322870552653,1.11627
1322870612653,1.11096
1322870672653,1.11713
1322870732653,1.12013
1322870792653,1.10791
1322870852653,1.10696
1322870912653,1.11314
1322870972653,1.11250
1322871032653,1.10906
1322871092653,1.11444
1322871152653,1.12367
1322871212653,1.11618
1322871272653,1.11763
1322871332653,1.12471
1322871392653,1.11091
1322871452653,1.11921
1322871512653,1.12199
1322871572653,1.12799
1322871632653,1.12289
1322871692653,1.12968
1322871752653,1.13020
1322871812653,1.12969
1322871872653,1.13651
1322871932653,1.13023
1322871992653,1.13036
1322872052653,1.12032
1322872112653,1.12737
1322872172653,1.12273
1322872232653,1.12533
1322872292653,1.12355
1322872352653,1.11472
1322872412653,1.11175
1322872472653,1.11637
1322872532653,1.11871
1322872592653,1.11548
1322872652653,1.11253
1322872712653,1.12848
1322872772653,1.11048
1322872832653,1.12622
1322872892653,1.11346
1322872952653,1.11571
1322873012653,1.10986
1322873072653,1.12096
1322873132653,1.11597
1322873192653,1.11354
1322873252653,1.11242
1322873312653,1.11212
1322873372653,1.11651
1322873432653,1.11319
1322873492653,1.11224
1322873552653,1.11484
1322873612653,1.11396
1322873672653,1.11215
1322873732653,1.11551
1322873792653,1.11820
1322873852653,1.11865
1322873912653,1.11211
1322873972653,1.11230
1322874032663,1.12088
1322874092663,1.11296
1322874152663,1.11372
1322874212663,1.11950
1322874272663,1.12020
1322874332663,1.12657
1322874392663,1.11823
1322874452663,1.13192
1322874512663,1.13172
1322874572663,1.13148
1322874632663,1.13472
1322874692663,1.14073
1322874752663,1.13220
1322874812663,1.13380
1322874872663,1.12967
1322874932663,1.13353
1322874992663,1.14155
1322875052663,1.14565
1322875112663,1.14227
1322875172663,1.13958
1322875232663,1.13382
1322875292663,1.13904
1322875352663,1.13823
1322875412663,1.13576
1322875472663,1.13201
1322875532663,1.12255
1322875592663,1.12531
1322875652663,1.12876
1322875712663,1.11385
1322875772663,1.13409
1322875832663,1.12848
1322875892663,1.11539
1322875952663,1.12900
1322876012663,1.12243
1322876072663,1.12764
1322876132663,1.11530
1322876192663,1.11572
1322876252663,1.11745
1322876312663,1.12892
1322876372663,1.13171
1322876432663,1.12274
1322876492663,1.12310
1322876552663,1.12362
1322876612663,1.12856
1322876672663,1.12449
1322876732663,1.12156
1322876792663,1.12696
1322876852663,1.13131
1322876912663,1.12459
1322876972663,1.13250
1322877032663,1.13465
1322877092663,1.12578
1322877152663,1.12237
1322877212663,1.12924
1322877272663,1.11315
1322877332663,1.12207
1322877392663,1.11767
1322877452663,1.11820
1322877512663,1.12198
1322877572663,1.11845
1322877632673,1.11825
1322877692673,1.11834
1322877752673,1.11720
1322877812673,1.11392
1322877872673,1.11154
1322877932673,1.12054
1322877992673,1.12034
1322878052673,1.11089
1322878112673,1.10729
1322878172673,1.11555
1322878232673,1.10924
1322878292673,1.11581
1322878352673,1.11321
1322878412673,1.11304
1322878472673,1.11564
1322878532673,1.11614
1322878592673,1.11133
1322878652673,1.11242
1322878712673,1.11588
1322878772673,1.11621
1322878832673,1.11149
1322878892673,1.10517
1322878952673,1.11945
1322879012673,1.11233
1322879072673,1.10808
1322879132673,1.11694
1322879192673,1.12001
1322879252673,1.11273
1322879312673,1.10881
1322879372673,1.11056
1322879432673,1.10449
1322879492673,1.11882
1322879552673,1.11217
1322879612673,1.12158
1322879672673,1.12002
1322879732673,1.11729
1322879792673,1.11255
1322879852673,1.11469
1322879912673,1.11430
1322879972673,1.11213
1322880032673,1.11631
1322880092673,1.11489
1322880152673,1.11430
1322880212673,1.11630
1322880272673,1.11136
1322880332673,1.11115
1322880392673,1.10590
1322880452673,1.11501
1322880512673,1.10519
1322880572673,1.10753
1322880632673,1.11564
1322880692673,1.11652
1322880752673,1.11121
1322880812673,1.11313
1322880872673,1.11660
1322880932673,1.11559
1322880992673,1.11872
1322881052673,1.11395
1322881112673,1.12367
1322881172673,1.11509
1322881232683,1.12290
1322881292683,1.11301
1322881352683,1.11329
1322881412683,1.12372
1322881472683,1.11897
1322881532683,1.11174
1322881592683,1.11335
1322881652683,1.10986
1322881712683,1.12273
1322881772683,1.11165
1322881832683,1.10554
1322881892683,1.11039
1322881952683,1.11432
1322882012683,1.11434
1322882072683,1.11719
1322882132683,1.11920
1322882192683,1.11163
1322882252683,1.11546
1322882312683,1.11183
1322882372683,1.12092
1322882432683,1.11883
1322882492683,1.11906
1322882552683,1.11624
1322882612683,1.12131
1322882672683,1.12210
1322882732683,1.12654
1322882792683,1.12174
1322882852683,1.12391
1322882912683,1.12418
1322882972683,1.11423
1322883032683,1.12178
1322883092683,1.11910
1322883152683,1.12059
1322883212683,1.11908
1322883272683,1.12500
1322883332683,1.12236
1322883392683,1.12517
1322883452683,1.12387
1322883512683,1.12428
1322883572683,1.11276
1322883632683,1.13002
1322883692683,1.13172
1322883752683,1.12723
1322883812683,1.13950
1322883872683,1.12458
1322883932683,1.13244
1322883992683,1.12760
1322884052683,1.12907
1322884112683,1.13059
1322884172683,1.14111
1322884232683,1.13682
1322884292683,1.14271
1322884352683,1.14595
1322884412683,1.13560
1322884472683,1.14190
1322884532683,1.14220
1322884592683,1.14258
1322884652683,1.14980
1322884712683,1.14186
1322884772683,1.14401
1322884832693,1.14871
1322884892693,1.15221
1322884952693,1.15132
1322885012693,1.14350
1322885072693,1.15003
1322885132694,1.15499
1322885192694,1.14357
1322885252694,1.15018
1322885312694,1.15869
1322885372694,1.15319
1322885432694,1.16208
1322885492693,1.16367
1322885552693,1.15685
1322885612693,1.16929
1322885672693,1.17456
1322885732693,1.17750
1322885792693,1.16815
1322885852693,1.17118
1322885912693,1.17445
1322885972693,1.16891
1322886032693,1.17115
1322886092694,1.17228
1322886152693,1.17753
1322886212693,1.17337
1322886272693,1.16320
1322886332693,1.17424
1322886392693,1.17320
1322886452694,1.17887
1322886512694,1.18314
1322886572694,1.17264
1322886632694,1.16978
1322886692694,1.17045
1322886752694,1.16656
1322886812693,1.16742
1322886872693,1.16821
1322886932693,1.17293
1322886992693,1.16869
1322887052693,1.16461
1322887112693,1.16653
1322887172693,1.16153
1322887232693,1.15602
1322887292693,1.17660
1322887352693,1.16010
1322887412693,1.16112
1322887472693,1.15988
1322887532693,1.15496
1322887592693,1.15571
1322887652693,1.15443
1322887712693,1.15686
1322887772693,1.14630
1322887832694,1.15216
1322887892694,1.16016
1322887952694,1.15952
1322888012694,1.15170
1322888072694,1.14052
1322888132694,1.15512
1322888192693,1.14802
1322888252693,1.14275
1322888312693,1.14937
1322888372693,1.13937
1322888432704,1.13745
1322888492704,1.13752
1322888552704,1.14492
1322888612704,1.14007
1322888672704,1.12960
1322888732704,1.13171
1322888792704,1.13866
1322888852704,1.13555
1322888912704,1.13834
1322888972704,1.13353
1322889032704,1.12608
1322889092704,1.14192
1322889152704,1.13417
1322889212704,1.13736
1322889272704,1.12983
1322889332704,1.13922
1322889392704,1.13330
1322889452704,1.14434
1322889512704,1.13048
1322889572704,1.14759
1322889632704,1.14096
1322889692704,1.14131
1322889752704,1.13377
1322889812704,1.13842
1322889872704,1.13374
1322889932704,1.13882
1322889992704,1.13938
1322890052704,1.14140
1322890112704,1.14171
1322890172704,1.13515
1322890232704,1.13533
1322890292704,1.13202
1322890352704,1.13486
1322890412704,1.13309
1322890472704,1.13347
1322890532704,1.13731
1322890592704,1.14133
1322890652704,1.11800
1322890712704,1.13280
1322890772704,1.13421
1322890832704,1.12479
1322890892704,1.13693
1322890952704,1.12666
1322891012704,1.12984
1322891072704,1.12744
1322891132704,1.12374
1322891192704,1.12019
1322891252704,1.12674
1322891312704,1.11913
1322891372704,1.13816
1322891432704,1.12687
1322891492704,1.13112
1322891552704,1.13378
1322891612704,1.13429
1322891672704,1.14657
1322891732704,1.14221
1322891792704,1.13682
1322891852704,1.13924
1322891912704,1.13572
1322891972704,1.13620
1322892032714,1.13477
1322892092714,1.13587
1322892152714,1.14345
1322892212714,1.13333
1322892272714,1.14256
1322892332714,1.13209
1322892392714,1.12946
1322892452714,1.12593
1322892512714,1.12288
1322892572714,1.12748
1322892632714,1.13358
1322892692714,1.12692
1322892752714,1.12266
1322892812714,1.12784
1322892872714,1.11374
1322892932714,1.11165
1322892992714,1.12208
1322893052714,1.11616
1322893112714,1.12370
1322893172714,1.11405
1322893232714,1.10977
1322893292714,1.11313
1322893352714,1.10884
1322893412714,1.12461
1322893472714,1.11076
1322893532714,1.11590
1322893592714,1.11260
1322893652714,1.11687
1322893712714,1.11534
1322893772714,1.10481
1322893832714,1.11522
1322893892714,1.11358
1322893952714,1.11325
1322894012714,1.12067
1322894072714,1.11335
1322894132714,1.11911
1322894192714,1.11204
1322894252714,1.11186
1322894312714,1.11831
1322894372714,1.11945
1322894432714,1.12202
1322894492714,1.12397
1322894552714,1.12035
1322894612714,1.13822
1322894672714,1.12376
1322894732714,1.12396
1322894792714,1.12824
1322894852714,1.12898
1322894912714,1.12263
1322894972714,1.12591
1322895032714,1.12584
1322895092714,1.12642
1322895152714,1.12971
1322895212714,1.13263
1322895272714,1.11942
1322895332714,1.12854
1322895392714,1.12476
1322895452714,1.11880
1322895512714,1.12364
1322895572714,1.10716
1322895632725,1.12020
1322895692725,1.11720
1322895752725,1.11602
1322895812725,1.10942
1322895872725,1.10817
1322895932725,1.10737
1322895992725,1.10125
1322896052725,1.11526
1322896112725,1.10507
1322896172725,1.10397
1322896232725,1.10025
1322896292725,1.10157
1322896352725,1.11952
1322896412725,1.10921
1322896472725,1.10180
1322896532725,1.10487
1322896592725,1.11110
1322896652725,1.10537
1322896712725,1.11000
1322896772725,1.09891
1322896832725,1.10597
1322896892725,1.10114
1322896952725,1.10357
1322897012725,1.10569
1322897072725,1.10421
1322897132725,1.11228
1322897192725,1.10410
1322897252725,1.10686
1322897312725,1.11043
1322897372725,1.10789
1322897432725,1.10232
1322897492725,1.11483
1322897552725,1.09782
1322897612725,1.10215
1322897672725,1.10659
1322897732725,1.10534
1322897792725,1.10505
1322897852725,1.10468
1322897912725,1.10514
1322897972725,1.09805
1322898032725,1.10090
1322898092725,1.09450
1322898152725,1.09988
1322898212725,1.11057
1322898272725,1.10197
1322898332725,1.10055
1322898392725,1.10314
1322898452725,1.10634
1322898512725,1.09910
1322898572725,1.11054
1322898632725,1.10252
1322898692725,1.10856
1322898752725,1.11098
1322898812725,1.10980
1322898872725,1.11876
1322898932725,1.10999
1322898992725,1.10552
1322899052725,1.11107
1322899112725,1.11601
1322899172725,1.10779
1322899232736,1.11414
1322899292736,1.10366
1322899352736,1.10845
1322899412736,1.10137
1322899472736,1.10516
1322899532736,1.11166
1322899592736,1.12097
1322899652736,1.10892
1322899712736,1.11003
1322899772736,1.10905
1322899832736,1.12205
1322899892736,1.11748
1322899952736,1.11285
1322900012736,1.10548
1322900072736,1.10830
1322900132736,1.11373
1322900192736,1.10754
1322900252736,1.11104
1322900312736,1.10473
1322900372736,1.10909
1322900432736,1.10465
1322900492736,1.09810
1322900552736,1.10853
1322900612736,1.09881
1322900672736,1.10544
1322900732736,1.09656
1322900792736,1.10213
1322900852736,1.10102
1322900912736,1.10223
1322900972736,1.11048
1322901032736,1.10255
1322901092736,1.09976
1322901152736,1.10366
1322901212736,1.10206
1322901272736,1.09903
1322901332736,1.10825
1322901392736,1.10862
1322901452736,1.10026
1322901512736,1.09754
1322901572736,1.10322
1322901632736,1.10215
1322901692736,1.11017
1322901752736,1.11000
1322901812736,1.10348
1322901872736,1.10605
1322901932736,1.09036
1322901992736,1.10363
1322902052736,1.09659
1322902112736,1.10703
1322902172736,1.10279
1322902232736,1.11326
1322902292736,1.10578
1322902352736,1.11004
1322902412736,1.10314
1322902472736,1.10262
1322902532736,1.10840
1322902592736,1.09430
1322902652736,1.10637
1322902712736,1.09898
1322902772736,1.09277
1322902832747,1.10155
1322902892747,1.09995
1322902952747,1.10101
1322903012747,1.10521
1322903072747,1.10356
1322903132747,1.10341
1322903192747,1.10093
1322903252747,1.10288
1322903312747,1.09516
1322903372747,1.09325
1322903432747,1.10376
1322903492747,1.10457
1322903552747,1.10340
1322903612747,1.09143
1322903672747,1.09660
1322903732747,1.09881
1322903792747,1.10465
1322903852747,1.10184
1322903912747,1.09878
1322903972747,1.09966
1322904032747,1.09797
1322904092747,1.09398
1322904152747,1.10049
1322904212747,1.10512
1322904272747,1.10141
1322904332747,1.10474
1322904392747,1.09933
1322904452747,1.10923
1322904512747,1.10370
1322904572747,1.09806
1322904632747,1.10416
1322904692747,1.10589
1322904752747,1.09802
1322904812747,1.10796
1322904872747,1.10504
1322904932747,1.09885
1322904992747,1.10367
1322905052747,1.10507
1322905112747,1.10567
1322905172747,1.10457
1322905232747,1.11178
1322905292747,1.09462
1322905352747,1.10643
1322905412747,1.10514
1322905472747,1.10366
1322905532747,1.10558
1322905592747,1.10657
1322905652747,1.09963
1322905712747,1.10221
1322905772747,1.10835
1322905832747,1.10836
1322905892747,1.09653
1322905952747,1.10871
1322906012747,1.10613
1322906072747,1.10774
1322906132747,1.10722
1322906192747,1.10923
1322906252747,1.10582
1322906312747,1.10610
1322906372747,1.10263
1322906432759,1.10159
1322906492759,1.10991
1322906552759,1.10495
1322906612759,1.10439
1322906672759,1.10356
1322906732759,1.10620
1322906792759,1.10061
1322906852759,1.10148
1322906912759,1.09937
1322906972759,1.10307
1322907032759,1.10788
1322907092759,1.10762
1322907152759,1.10144
1322907212759,1.10929
1322907272759,1.11365
1322907332759,1.10327
1322907392759,1.10357
1322907452759,1.10982
1322907512759,1.12051
1322907572759,1.10881
1322907632759,1.11540
1322907692759,1.10744
1322907752759,1.10181
1322907812759,1.11427
1322907872759,1.09970
1322907932759,1.10823
1322907992759,1.11058
1322908052759,1.10464
1322908112759,1.10649
1322908172759,1.10862
1322908232759,1.09987
1322908292759,1.10136
1322908352759,1.10650
1322908412759,1.09841
1322908472759,1.09154
1322908532759,1.11136
1322908592759,1.10499
1322908652759,1.10018
1322908712759,1.10404
1322908772759,1.10182
1322908832759,1.09882
1322908892759,1.10312
1322908952759,1.10414
1322909012759,1.09626
1322909072759,1.09829
1322909132759,1.10680
1322909192759,1.10129
1322909252759,1.10966
1322909312759,1.10274
1322909372759,1.10480
1322909432759,1.10681
1322909492759,1.10764
1322909552759,1.11386
1322909612759,1.11488
1322909672759,1.11545
1322909732759,1.11563
1322909792759,1.11662
1322909852759,1.12626
1322909912759,1.11121
1322909972759,1.12005
1322910032771,1.11407
1322910092771,1.11064
1322910152771,1.12366
1322910212771,1.11970
1322910272771,1.12279
1322910332771,1.11487
1322910392771,1.11773
1322910452771,1.11886
1322910512771,1.12909
1322910572771,1.11994
1322910632771,1.12720
1322910692771,1.16205
1322911232771,1.12224
1322911292771,1.12390
1322911352771,1.12573
1322911412771,1.13713
1322911472771,1.13674
1322911532771,1.12990
1322911592771,1.13042
1322911652771,1.13893
1322911712771,1.13157
1322911772771,1.13685
1322911832771,1.13847
1322911892771,1.13801
1322911952771,1.13588
1322912012771,1.12721
1322912072771,1.13749
1322912132771,1.14125
1322912192771,1.13869
1322912252771,1.12705
1322912312771,1.13945
1322912372771,1.13721
1322912432771,1.13474
1322912492771,1.13483
1322912552771,1.13090
1322912612771,1.13311
1322912672771,1.12269
1322912732771,1.13423
1322912792771,1.13593
1322912852771,1.13072
1322912912771,1.13373
1322912972771,1.13279
1322913032771,1.14121
1322913092771,1.13267
1322913152771,1.13700
1322913212771,1.12934
1322913272771,1.13720
1322913332771,1.13476
1322913392771,1.13030
1322913452771,1.12813
1322913512771,1.12573
1322913572771,1.12928
1322913632783,1.13353
1322913692783,1.12918
1322913752783,1.13849
1322913812783,1.13882
1322913872783,1.14088
1322913932783,1.13701
1322913992783,1.14027
1322914052783,1.14798
1322914112783,1.12993
1322914172783,1.13994
1322914232783,1.13947
1322914292783,1.13551
1322914352783,1.14655
1322914412783,1.14105
1322914472783,1.13333
1322914532783,1.13015
1322914592783,1.14127
1322914652783,1.13606
1322914712783,1.13389
1322914772783,1.13490
1322914832783,1.13617
1322914892783,1.13493
1322914952783,1.13473
1322915012783,1.13227
1322915072783,1.13643
1322915132783,1.13468
1322915192783,1.12887
1322915252783,1.13165
1322915312783,1.12894
1322915372783,1.12255
1322915432783,1.12902
1322915492783,1.13531
1322915552783,1.12569
1322915612783,1.12338
1322915672783,1.14272
1322915732783,1.12674
1322915792783,1.12533
1322915852783,1.12299
1322915912783,1.12942
1322915972783,1.13081
1322916032783,1.11921
1322916092783,1.12631
1322916152783,1.12622
1322916212783,1.13018
1322916272783,1.13213
1322916332783,1.12493
1322916392783,1.12643
1322916452783,1.12865
1322916512783,1.12772
1322916572783,1.11775
1322916632783,1.12367
1322916692783,1.11773
1322916752783,1.12758
1322916812783,1.12433
1322916872783,1.12779
1322916932783,1.12288
1322916992783,1.13507
1322917052783,1.11931
1322917112783,1.12556
1322917172783,1.12048
1322917232795,1.12936
1322917292795,1.12338
1322917352795,1.11912
1322917412795,1.12701
1322917472795,1.12375
1322917532795,1.12568
1322917592795,1.12959
1322917652795,1.11993
1322917712795,1.12370
1322917772795,1.11493
1322917832795,1.12174
1322917892795,1.13004
1322917952795,1.12127
1322918012795,1.12346
1322918072795,1.12792
1322918132795,1.11553
1322918192795,1.12684
1322918252795,1.12101
1322918312795,1.12103
1322918372795,1.12806
1322918432795,1.11507
1322918492795,1.12524
1322918552795,1.12983
1322918612795,1.11705
1322918672795,1.12076
1322918732795,1.11678
1322918792795,1.11590
1322918852795,1.12870
1322918912795,1.12073
1322918972795,1.12507
1322919032795,1.12051
1322919092795,1.12292
1322919152795,1.12315
1322919212795,1.11920
1322919272795,1.11376
1322919332795,1.11017
1322919392795,1.10896
1322919452795,1.11536
1322919512795,1.10940
1322919572795,1.12322
1322919632795,1.11149
1322919692795,1.12459
1322919752795,1.11486
1322919812795,1.11920
1322919872795,1.11836
1322919932795,1.10685
1322919992795,1.11944
1322920052795,1.11553
1322920112795,1.10598
1322920172795,1.12150
1322920232795,1.11712
1322920292795,1.11694
1322920352795,1.11817
1322920412795,1.11600
1322920472795,1.11551
1322920532795,1.11673
1322920592795,1.11059
1322920652795,1.11200
1322920712795,1.11408
1322920772795,1.11641
1322920832807,1.11482
1322920892807,1.10998
1322920952807,1.11757
1322921012807,1.10676
1322921072807,1.10670
1322921132807,1.11240
1322921192807,1.11784
1322921252807,1.09585
1322921312807,1.10969
1322921372807,1.09823
1322921432807,1.10822
1322921492807,1.11036
1322921552807,1.10749
1322921612807,1.10694
1322921672807,1.11479
1322921732807,1.11110
1322921792807,1.11051
1322921852807,1.11723
1322921912807,1.10595
1322921972807,1.11151
1322922032807,1.11350
1322922092807,1.10469
1322922152807,1.10693
1322922212807,1.10539
1322922272807,1.11918
1322922332807,1.10345
1322922392807,1.10043
1322922452807,1.10887
1322922512807,1.11086
1322922572807,1.10440
1322922632807,1.10875
1322922692807,1.10624
1322922752807,1.10517
1322922812807,1.09667
1322922872807,1.10701
1322922932807,1.11674
1322922992807,1.09835
1322923052807,1.10858
1322923112807,1.10046
1322923172807,1.09294
1322923232807,1.10077
1322923292807,1.10021
1322923352807,1.10395
1322923412807,1.10528
1322923472807,1.09494
1322923532807,1.09583
1322923592807,1.09603
1322923652807,1.10027
1322923712807,1.08989
1322923772807,1.09776
1322923832807,1.10321
1322923892807,1.10195
1322923952807,1.10711
1322924012807,1.09241
1322924072807,1.09735
1322924132807,1.09465
1322924192807,1.10153
1322924252807,1.10583
1322924312807,1.10388
1322924372807,1.10473
1322924432819,1.09505
1322924492819,1.09599
1322924552819,1.10216
1322924612819,1.10178
1322924672819,1.10303
1322924732819,1.09702
1322924792819,1.09314
1322924852819,1.09561
1322924912819,1.09815
1322924972819,1.09679
1322925032819,1.09735
1322925092819,1.10011
1322925152819,1.10114
1322925212819,1.10519
1322925272819,1.09422
1322925332819,1.09989
1322925392819,1.09818
1322925452819,1.10177
1322925512819,1.09599
1322925572819,1.10827
1322925632819,1.09939
1322925692819,1.10944
1322925752819,1.09863
1322925812819,1.11292
1322925872819,1.09563
1322925932819,1.10189
1322925992819,1.10566
1322926052819,1.10891
1322926112819,1.09939
1322926172819,1.10316
1322926232819,1.09891
1322926292819,1.10445
1322926352819,1.11213
1322926412819,1.10895
1322926472819,1.10160
1322926532819,1.10344
1322926592819,1.10657
1322926652819,1.10437
1322926712819,1.10093
1322926772819,1.10070
1322926832819,1.10713
1322926892819,1.09454
1322926952819,1.11109
1322927012819,1.10570
1322927072819,1.10658
1322927132819,1.10991
1322927192819,1.11080
1322927252819,1.10854
1322927312819,1.11123
1322927372819,1.10330
1322927432819,1.11104
1322927492819,1.10274
1322927552819,1.10591
1322927612819,1.10920
1322927672819,1.10596
1322927732819,1.11285
1322927792819,1.11607
1322927852819,1.11359
1322927912819,1.10879
1322927972819,1.11243
1322928032831,1.10395
1322928092831,1.11097
1322928152831,1.10864
1322928212831,1.10652
1322928272831,1.10464
1322928332831,1.09641
1322928392831,1.10245
1322928452831,1.11657
1322928512831,1.10675
1322928572831,1.10555
1322928632831,1.11008
1322928692831,1.11424
1322928752831,1.10413
1322928812831,1.10877
1322928872831,1.10669
1322928932831,1.10798
1322928992831,1.11369
1322929052831,1.10323
1322929112831,1.11019
1322929172831,1.11158
1322929232831,1.10193
1322929292831,1.10516
1322929352831,1.10493
1322929412831,1.11865
1322929472831,1.11264
1322929532831,1.11581
1322929592831,1.11159
1322929652831,1.10947
1322929712831,1.10947
1322929772831,1.11544
1322929832831,1.10498
1322929892831,1.10965
1322929952831,1.10205
1322930012831,1.11165
1322930072831,1.10524
1322930132831,1.11039
1322930192831,1.10321
1322930252831,1.10941
1322930312831,1.09942
1322930372831,1.10907
1322930432831,1.10400
1322930492831,1.12294
1322930552831,1.10598
1322930612831,1.12108
1322930672831,1.10574
1322930732831,1.11005
1322930792831,1.10509
1322930852831,1.10448
1322930912831,1.12521
1322930972831,1.11293
1322931032831,1.11504
1322931092831,1.12664
1322931152831,1.12683
1322931212831,1.12461
1322931272831,1.13212
1322931332831,1.12916
1322931392831,1.12848
1322931452831,1.13095
1322931512831,1.13618
1322931572831,1.13313
1322931632843,1.13402
1322931692843,1.13309
1322931752843,1.13831
1322931812843,1.13605
1322931872843,1.13522
1322931932843,1.13065
1322931992843,1.11192
1322932052843,1.11243
1322932112843,1.11909
1322932172843,1.11448
1322932232843,1.11469
1322932292843,1.12009
1322932352843,1.11367
1322932412843,1.11930
1322932472843,1.10986
1322932532843,1.09843
1322932592843,1.11295
1322932652843,1.10543
1322932712843,1.09900
1322932772843,1.09875
1322932832843,1.09656
1322932892843,1.11189
1322932952843,1.10386
1322933012843,1.10537
1322933072843,1.09546
1322933132843,1.09921
1322933192843,1.10169
1322933252843,1.10432
1322933312843,1.10353
1322933372843,1.09797
1322933432843,1.09757
1322933492843,1.10518
1322933552843,1.09209
1322933612843,1.09920
1322933672843,1.09720
1322933732843,1.10705
1322933792843,1.10354
1322933852843,1.10748
1322933912843,1.10569
1322933972843,1.10575
1322934032843,1.10017
1322934092843,1.10422
1322934152843,1.09922
1322934212843,1.09407
1322934272843,1.09697
1322934332843,1.10649
1322934392843,1.09290
1322934452843,1.09901
1322934512843,1.09815
1322934572843,1.10270
1322934632843,1.10289
1322934692843,1.08501
1322934752843,1.09372
1322934812843,1.09416
1322934872843,1.10297
1322934932843,1.09794
1322934992843,1.08952
1322935052843,1.09205
1322935112843,1.09957
1322935172843,1.09034
1322935232855,1.09290
1322935292855,1.10199
1322935352855,1.09042
1322935412855,1.09835
1322935472855,1.09019
1322935532855,1.09588
1322935592855,1.09519
1322935652855,1.10082
1322935712855,1.10008
1322935772855,1.10303
1322935832855,1.09045
1322935892855,1.09225
1322935952855,1.09853
1322936012855,1.09061
1322936072855,1.10425
1322936132855,1.09855
1322936192855,1.10496
1322936252855,1.09573